STARLINK-36482, 67309

Orbit data source: Space-Track

STARLINK-36482, 67309 is a payload satellite owned by SpaceX/Seattle (US) in LEO that was launched on Sun, 04 Jan 2026 UTC via an FALCON 9 launch vehicle from the Air Force Eastern Test Range (AFETR). Payload-class satellites include a variety of spacecraft equipped with specific instruments for various scientific and technological missions. These include communications satellites like Starlink; space stations such as the ISS; scientific satellites like the Hubble; Earth observation satellites from companies like Planet Labs, Umbra, and HawkEye 360; GPS; miniature CubeSats for education and research; and military/defense satellites.

Loading next visibility...
Identifier
67309, 2026-002E
Orbit
LEO
Country
Flag of USUS
Related business
Manufacturer
SpaceX/Seattle
Mission
Operational Commercial Communications
Bus & Motor
STARLINK V2MO, Unknown motor
Mass
575 kg wet, ~530 kg dry
Launch date (UTC)
2026-01-04 (2 months ago)
Launch vehicle
FALCON 9
Launch site
Air Force Eastern Test Range (AFETR)
Object type
Payload
Rocket body
Debris
Shape & HBR
Box + 2 Pan, 17.7 m
Radar Cross Section
36.964 m²

Expand to show TLE details & history
Last TLE update: 1 day ago

TLE from 1 day ago
0 STARLINK-36482
1 67309U 26002E   26062.17783954  .00025256  00000-0  92393-3 0  9994
2 67309  43.0005   1.9865 0000868 243.7567 116.3195 15.27588223 10082
Epoch: 2026-03-03T04:16Z
TLE epoch observation values (Epoch: 2026-03-03T04:16:05.336Z)
Latitude
-0.00004°
Longitude
137.00359°
Altitude
483.064 km
Speed
7.626 km/s
True Right ascension
00h 07m 56s
True Declination
0° 00' 00"
Sunlit
Object was in daylight at epoch
Visualization orbit readout
Latitude
Unknown
Longitude
Unknown
Altitude
Unknown
Speed
Unknown
Apparent Right ascension
Unknown
Apparent Declination
Unknown
Sunlit
N/A
Visualization observer readout
Local Sidereal Time
07:39:24
Azimuth
Unknown
Elevation
Unknown
Doppler factor
Unknown
Orbital elements
Apogee altitude
485.565 km
Perigee altitude
484.374 km
Semi-major axis
6,863.107 km
Eccentricity
0.00009
Inclination
43.0005°
RAAN
1.9865°
Arg. of periapsis
243.7567°
True anomaly
116.32842°
Mean anomaly
116.3195°
Eccentric anomaly
116.32396°
Mean motion
3.81735 °/min
Orbital period
94.31 mins
BSTAR
0.00092393
Loading maneuver chart data...
Computing Atmospheric mass density...
Loading historical data...
Loading historical data...
Loading historical data...
Loading historical data...
Loading historical data...
Loading historical data...
Loading historical data...

Documentation

Showing up to 5 results
|